When you browse on this site, cookies collect data to enhance your experience and personalize the content and advertising you see.
Visit our Privacy Policy to learn more. By continuing to use the site, you agree to this use of cookies and data.
  • In Spain
  • List of Countries
  • For 7 days
  • Water Temperature
  • Satellite Maps
  • Weather Map
  • Weather Widgets
  • user-avatar
    Login

    Hourly Weather Finiks

    Today, 19 June, Wednesday

    Time Temperature Precipitation Wind Pressure Humidity
    00:00 +32°C° 0 mm 4 mps 731 mmHg 11%
    01:00 +30°C° 0 mm 3 mps 731 mmHg 13%
    02:00 +28°C° 0 mm 2 mps 731 mmHg 15%
    03:00 +28°C° 0 mm 1 mps 731 mmHg 16%
    04:00 +27°C° 0 mm 1 mps 731 mmHg 17%
    05:00 +27°C° 0 mm 1 mps 731 mmHg 18%
    06:00 +28°C° 0 mm 1 mps 731 mmHg 16%
    07:00 +30°C° 0 mm 1 mps 731 mmHg 14%
    08:00 +31°C° 0 mm 1 mps 732 mmHg 13%
    09:00 +33°C° 0 mm 1 mps 732 mmHg 11%
    10:00 +34°C° 0 mm 1 mps 731 mmHg 10%
    11:00 +35°C° 0 mm 1 mps 731 mmHg 9%
    12:00 +37°C° 0 mm 1 mps 731 mmHg 8%
    13:00 +39°C° 0 mm 2 mps 730 mmHg 7%
    14:00 +40°C° 0 mm 2 mps 729 mmHg 7%
    15:00 +41°C° 0 mm 2 mps 729 mmHg 6%
    16:00 +41°C° 0 mm 2 mps 728 mmHg 6%
    17:00 +42°C° 0 mm 2 mps 728 mmHg 6%
    18:00 +40°C° 0 mm 2 mps 728 mmHg 6%
    19:00 +39°C° 0 mm 3 mps 728 mmHg 7%
    20:00 +38°C° 0 mm 3 mps 729 mmHg 7%
    21:00 +37°C° 0 mm 4 mps 729 mmHg 9%
    22:00 +35°C° 0 mm 4 mps 729 mmHg 11%
    23:00 +34°C° 0 mm 5 mps 730 mmHg 12%

    Tomorrow, 20 June, Thursday

    Time Temperature Precipitation Wind Pressure Humidity
    00:00 +33°C° 0 mm 4 mps 730 mmHg 13%
    01:00 +31°C° 0 mm 2 mps 729 mmHg 14%
    02:00 +30°C° 0 mm 1 mps 729 mmHg 14%
    03:00 +29°C° 0 mm 1 mps 729 mmHg 15%
    04:00 +28°C° 0 mm 1 mps 729 mmHg 15%
    05:00 +28°C° 0 mm 1 mps 729 mmHg 15%
    06:00 +29°C° 0 mm 1 mps 729 mmHg 14%
    07:00 +30°C° 0 mm 1 mps 730 mmHg 12%
    08:00 +32°C° 0 mm 1 mps 730 mmHg 11%
    09:00 +33°C° 0 mm 1 mps 730 mmHg 10%
    10:00 +35°C° 0 mm 1 mps 730 mmHg 9%
    11:00 +37°C° 0 mm 2 mps 730 mmHg 8%
    12:00 +38°C° 0 mm 2 mps 729 mmHg 7%
    13:00 +40°C° 0 mm 2 mps 728 mmHg 7%
    14:00 +41°C° 0 mm 2 mps 728 mmHg 6%
    15:00 +42°C° 0 mm 3 mps 727 mmHg 6%
    16:00 +43°C° 0 mm 4 mps 727 mmHg 5%
    17:00 +45°C° 0 mm 5 mps 726 mmHg 5%
    18:00 +42°C° 0 mm 6 mps 726 mmHg 6%
    19:00 +41°C° 0 mm 6 mps 726 mmHg 8%
    20:00 +39°C° 0 mm 7 mps 727 mmHg 9%
    21:00 +38°C° 0 mm 6 mps 727 mmHg 11%
    22:00 +35°C° 0 mm 6 mps 727 mmHg 12%
    23:00 +33°C° 0 mm 5 mps 727 mmHg 14%

    Day after tomorrow, 21 June, Friday

    Time Temperature Precipitation Wind Pressure Humidity
    00:00 +32°C° 0 mm 4 mps 727 mmHg 15%
    01:00 +30°C° 0 mm 3 mps 727 mmHg 17%
    02:00 +29°C° 0 mm 2 mps 727 mmHg 18%
    03:00 +28°C° 0 mm 2 mps 727 mmHg 20%
    04:00 +28°C° 0 mm 2 mps 727 mmHg 21%
    05:00 +27°C° 0 mm 2 mps 727 mmHg 23%
    06:00 +28°C° 0 mm 2 mps 727 mmHg 22%
    07:00 +29°C° 0 mm 2 mps 727 mmHg 21%
    08:00 +31°C° 0 mm 3 mps 728 mmHg 20%
    09:00 +33°C° 0 mm 3 mps 727 mmHg 19%
    10:00 +35°C° 0 mm 3 mps 727 mmHg 17%
    11:00 +36°C° 0 mm 3 mps 727 mmHg 16%
    12:00 +38°C° 0 mm 3 mps 727 mmHg 14%
    13:00 +40°C° 0 mm 4 mps 726 mmHg 13%
    14:00 +42°C° 0 mm 4 mps 726 mmHg 11%
    15:00 +42°C° 0 mm 6 mps 725 mmHg 11%
    16:00 +43°C° 0 mm 7 mps 725 mmHg 11%
    17:00 +43°C° 0 mm 9 mps 724 mmHg 11%
    18:00 +42°C° 0 mm 9 mps 725 mmHg 13%
    19:00 +39°C° 0 mm 8 mps 725 mmHg 14%
    20:00 +38°C° 0 mm 8 mps 725 mmHg 16%
    21:00 +35°C° 0 mm 7 mps 725 mmHg 19%
    22:00 +33°C° 0 mm 6 mps 726 mmHg 21%
    23:00 +32°C° 0 mm 5 mps 726 mmHg 24%

    22 June, Saturday

    Time Temperature Precipitation Wind Pressure Humidity
    00:00 +30°C° 0 mm 5 mps 726 mmHg 27%
    01:00 +29°C° 0 mm 4 mps 726 mmHg 30%
    02:00 +27°C° 0 mm 3 mps 726 mmHg 33%
    03:00 +26°C° 0 mm 2 mps 726 mmHg 27%
    04:00 +26°C° 0 mm 2 mps 727 mmHg 28%
    05:00 +25°C° 0 mm 2 mps 727 mmHg 30%
    06:00 +26°C° 0 mm 2 mps 727 mmHg 28%
    07:00 +27°C° 0 mm 2 mps 728 mmHg 27%
    08:00 +28°C° 0 mm 2 mps 728 mmHg 26%
    09:00 +29°C° 0 mm 2 mps 728 mmHg 24%
    10:00 +30°C° 0 mm 2 mps 728 mmHg 22%
    11:00 +32°C° 0 mm 2 mps 728 mmHg 20%
    12:00 +34°C° 0 mm 3 mps 728 mmHg 19%
    13:00 +35°C° 0 mm 4 mps 728 mmHg 18%
    14:00 +36°C° 0 mm 4 mps 727 mmHg 17%
    15:00 +37°C° 0 mm 4 mps 727 mmHg 16%
    16:00 +37°C° 0 mm 4 mps 727 mmHg 15%
    17:00 +38°C° 0 mm 4 mps 727 mmHg 14%
    18:00 +37°C° 0 mm 4 mps 727 mmHg 14%
    19:00 +35°C° 0 mm 3 mps 727 mmHg 14%
    20:00 +34°C° 0 mm 3 mps 728 mmHg 14%
    21:00 +33°C° 0 mm 3 mps 728 mmHg 14%
    22:00 +33°C° 0 mm 3 mps 729 mmHg 13%
    23:00 +31°C° 0 mm 2 mps 729 mmHg 13%

    23 June, Sunday

    Time Temperature Precipitation Wind Pressure Humidity
    00:00 +30°C° 0 mm 3 mps 729 mmHg 14%
    01:00 +29°C° 0 mm 3 mps 729 mmHg 15%
    02:00 +29°C° 0 mm 3 mps 729 mmHg 16%
    03:00 +28°C° 0 mm 3 mps 729 mmHg 18%
    04:00 +27°C° 0 mm 2 mps 729 mmHg 20%
    05:00 +26°C° 0 mm 1 mps 729 mmHg 22%
    06:00 +27°C° 0 mm 1 mps 730 mmHg 21%
    07:00 +29°C° 0 mm 2 mps 730 mmHg 20%
    08:00 +30°C° 0 mm 2 mps 731 mmHg 19%
    09:00 +31°C° 0 mm 2 mps 730 mmHg 17%
    10:00 +34°C° 0 mm 2 mps 730 mmHg 16%
    11:00 +36°C° 0 mm 2 mps 730 mmHg 14%
    12:00 +37°C° 0 mm 2 mps 730 mmHg 12%
    13:00 +38°C° 0 mm 2 mps 729 mmHg 11%
    14:00 +39°C° 0 mm 2 mps 729 mmHg 9%
    15:00 +39°C° 0 mm 2 mps 728 mmHg 9%
    16:00 +40°C° 0 mm 2 mps 728 mmHg 8%
    17:00 +40°C° 0 mm 3 mps 727 mmHg 8%
    18:00 +39°C° 0 mm 3 mps 727 mmHg 8%
    19:00 +37°C° 0 mm 3 mps 727 mmHg 9%
    20:00 +36°C° 0 mm 3 mps 728 mmHg 10%
    21:00 +35°C° 0 mm 3 mps 728 mmHg 10%
    22:00 +34°C° 0 mm 2 mps 728 mmHg 11%
    23:00 +32°C° 0 mm 2 mps 728 mmHg 11%

    24 June, Monday

    Time Temperature Precipitation Wind Pressure Humidity
    00:00 +32°C° 0 mm 2 mps 728 mmHg 12%
    01:00 +31°C° 0 mm 2 mps 728 mmHg 13%
    02:00 +30°C° 0 mm 2 mps 728 mmHg 14%
    03:00 +29°C° 0 mm 1 mps 728 mmHg 16%
    04:00 +29°C° 0 mm 1 mps 728 mmHg 18%
    05:00 +28°C° 0 mm 1 mps 728 mmHg 20%
    06:00 +29°C° 0 mm 1 mps 728 mmHg 18%
    07:00 +31°C° 0 mm 1 mps 729 mmHg 16%
    08:00 +33°C° 0 mm 1 mps 729 mmHg 14%
    09:00 +34°C° 0 mm 1 mps 729 mmHg 12%
    10:00 +36°C° 0 mm 1 mps 729 mmHg 11%
    11:00 +37°C° 0 mm 1 mps 729 mmHg 9%
    12:00 +39°C° 0 mm 1 mps 728 mmHg 8%
    13:00 +40°C° 0 mm 1 mps 728 mmHg 7%
    14:00 +42°C° 0 mm 1 mps 727 mmHg 6%
    15:00 +42°C° 0 mm 1 mps 727 mmHg 6%
    16:00 +42°C° 0 mm 2 mps 727 mmHg 6%
    17:00 +42°C° 0 mm 2 mps 726 mmHg 5%
    18:00 +41°C° 0 mm 2 mps 726 mmHg 6%
    19:00 +40°C° 0 mm 2 mps 727 mmHg 7%
    20:00 +38°C° 0 mm 2 mps 727 mmHg 7%
    21:00 +37°C° 0 mm 3 mps 727 mmHg 9%
    22:00 +35°C° 0 mm 4 mps 728 mmHg 11%
    23:00 +34°C° 0 mm 5 mps 728 mmHg 13%
    Show more